Location: Gorze? G�rny
(49.8500°N, 19.5000°E)
Time: 05:26:59
(UTC+00:00)

SPOT 3 Rocket - Pass Details

Date: 13 May 2021
Orbit: 779 x 794 km, 98.7° (Epoch: 20 June)

Event Time Altitude Azimuth Distance (km) Brightness Sun altitude
Exits shadow 18:55:03 - 154° (SSE) 2,892 5.9 -5.7°
Reaches altitude 10° 18:56:27 10° 152° (SSE) 2,333 5.4 -5.9°
Maximum altitude 19:01:33 67° 71° (ENE) 846 3.6 -6.5°
Drops below altitude 10° 19:06:41 10° 350° (N) 2,345 6.9 -7.2°
Sets 19:09:01 0° 348° (NNW) 3,278 7.7 -7.5°
